TimeCST,TemperatureF,Dew PointF,Humidity,Sea Level PressureIn,VisibilityMPH,Wind Direction,Wind SpeedMPH,Gust SpeedMPH,PrecipitationIn,Events,Conditions,WindDirDegrees,DateUTC
12:15 AM,33.8,28.4,81,29.72,10.0,South,20.7,-,N/A,,Clear,170,2013-02-24 06:15:00
12:35 AM,33.8,28.4,81,29.72,10.0,South,21.9,26.5,N/A,,Clear,170,2013-02-24 06:35:00
12:55 AM,33.8,28.4,81,29.72,10.0,South,19.6,27.6,N/A,,Clear,170,2013-02-24 06:55:00
1:15 AM,32.0,28.4,87,29.72,10.0,South,18.4,-,N/A,,Clear,170,2013-02-24 07:15:00
1:35 AM,33.8,28.4,81,29.72,10.0,South,18.4,23.0,N/A,,Clear,170,2013-02-24 07:35:00
1:55 AM,33.8,28.4,81,29.72,10.0,SSE,17.3,-,N/A,,Clear,160,2013-02-24 07:55:00
2:15 AM,32.0,28.4,87,29.70,10.0,SSE,16.1,-,N/A,,Clear,160,2013-02-24 08:15:00
2:35 AM,32.0,28.4,87,29.70,10.0,South,18.4,-,N/A,,Clear,170,2013-02-24 08:35:00
2:55 AM,32.0,26.6,80,29.69,10.0,South,18.4,-,N/A,,Clear,170,2013-02-24 08:55:00
3:15 AM,32.0,26.6,80,29.68,10.0,South,19.6,25.3,N/A,,Clear,170,2013-02-24 09:15:00
3:35 AM,32.0,26.6,80,29.68,10.0,South,18.4,-,N/A,,Clear,170,2013-02-24 09:35:00
3:55 AM,32.0,26.6,80,29.66,10.0,SSE,17.3,-,N/A,,Clear,160,2013-02-24 09:55:00
4:15 AM,32.0,26.6,80,29.65,10.0,SSE,18.4,-,N/A,,Clear,160,2013-02-24 10:15:00
4:35 AM,32.0,26.6,80,29.65,10.0,South,17.3,21.9,N/A,,Clear,170,2013-02-24 10:35:00
4:55 AM,30.2,26.6,86,29.66,10.0,South,12.7,-,N/A,,Clear,170,2013-02-24 10:55:00
5:15 AM,30.2,26.6,86,29.67,10.0,SSE,10.4,-,N/A,,Clear,160,2013-02-24 11:15:00
5:35 AM,30.2,26.6,86,29.66,10.0,South,15.0,-,N/A,,Clear,170,2013-02-24 11:35:00
5:55 AM,30.2,26.6,86,29.67,10.0,South,9.2,-,N/A,,Clear,170,2013-02-24 11:55:00
6:15 AM,30.2,26.6,86,29.67,10.0,South,11.5,-,N/A,,Clear,170,2013-02-24 12:15:00
6:35 AM,30.2,26.6,86,29.67,10.0,South,13.8,-,N/A,,Clear,170,2013-02-24 12:35:00
6:55 AM,28.4,26.6,93,29.67,10.0,South,12.7,-,N/A,,Clear,170,2013-02-24 12:55:00
7:15 AM,28.4,26.6,93,29.67,10.0,South,13.8,-,N/A,,Clear,170,2013-02-24 13:15:00
7:35 AM,30.2,26.6,86,29.68,10.0,South,13.8,19.6,N/A,,Clear,170,2013-02-24 13:35:00
7:55 AM,30.2,26.6,86,29.69,10.0,South,15.0,23.0,N/A,,Clear,180,2013-02-24 13:55:00
8:15 AM,32.0,26.6,80,29.69,10.0,South,13.8,18.4,N/A,,Clear,180,2013-02-24 14:15:00
8:35 AM,32.0,28.4,87,29.69,10.0,South,9.2,-,N/A,,Clear,180,2013-02-24 14:35:00
8:55 AM,33.8,28.4,81,29.70,10.0,South,10.4,-,N/A,,Clear,190,2013-02-24 14:55:00
9:15 AM,37.4,28.4,70,29.70,10.0,South,10.4,-,N/A,,Clear,190,2013-02-24 15:15:00
9:35 AM,41.0,28.4,61,29.69,10.0,SSW,10.4,-,N/A,,Clear,200,2013-02-24 15:35:00
9:55 AM,42.8,28.4,57,29.70,10.0,SW,9.2,-,N/A,,Clear,220,2013-02-24 15:55:00
10:15 AM,46.4,30.2,53,29.69,10.0,WSW,10.4,-,N/A,,Clear,240,2013-02-24 16:15:00
10:35 AM,48.2,30.2,50,29.69,10.0,West,10.4,-,N/A,,Clear,260,2013-02-24 16:35:00
10:55 AM,50.0,28.4,43,29.69,10.0,West,10.4,-,N/A,,Clear,270,2013-02-24 16:55:00
11:15 AM,51.8,28.4,41,29.69,10.0,West,12.7,-,N/A,,Clear,280,2013-02-24 17:15:00
11:35 AM,51.8,28.4,41,29.69,10.0,WNW,13.8,17.3,N/A,,Clear,300,2013-02-24 17:35:00
11:55 AM,51.8,26.6,38,29.70,10.0,WNW,8.1,-,N/A,,Clear,290,2013-02-24 17:55:00
12:15 PM,51.8,28.4,41,29.70,10.0,NNW,11.5,-,N/A,,Clear,330,2013-02-24 18:15:00
12:35 PM,50.0,28.4,43,29.69,10.0,NNW,12.7,-,N/A,,Clear,340,2013-02-24 18:35:00
12:55 PM,48.2,32.0,54,29.68,10.0,North,11.5,17.3,N/A,,Clear,360,2013-02-24 18:55:00
1:15 PM,44.6,32.0,61,29.68,10.0,North,11.5,-,N/A,,Clear,360,2013-02-24 19:15:00
1:35 PM,44.6,32.0,61,29.67,10.0,North,11.5,-,N/A,,Clear,360,2013-02-24 19:35:00
1:55 PM,44.6,32.0,61,29.67,10.0,North,12.7,-,N/A,,Clear,360,2013-02-24 19:55:00
2:15 PM,44.6,33.8,66,29.67,10.0,North,15.0,-,N/A,,Clear,350,2013-02-24 20:15:00
2:35 PM,42.8,32.0,66,29.66,10.0,North,15.0,23.0,N/A,,Clear,10,2013-02-24 20:35:00
2:55 PM,41.0,32.0,70,29.67,10.0,North,16.1,21.9,N/A,,Clear,10,2013-02-24 20:55:00
3:15 PM,41.0,32.0,70,29.68,10.0,North,16.1,20.7,N/A,,Clear,360,2013-02-24 21:15:00
3:35 PM,39.2,32.0,75,29.68,7.0,North,17.3,-,N/A,,Clear,350,2013-02-24 21:35:00
3:55 PM,37.4,32.0,81,29.69,7.0,North,18.4,25.3,N/A,,Scattered Clouds,10,2013-02-24 21:55:00
4:15 PM,33.8,30.2,87,29.69,7.0,North,20.7,27.6,N/A,,Mostly Cloudy,360,2013-02-24 22:15:00
4:35 PM,33.8,30.2,87,29.69,7.0,North,21.9,27.6,N/A,,Overcast,350,2013-02-24 22:35:00
4:55 PM,32.0,30.2,93,29.69,5.0,North,23.0,26.5,N/A,,Overcast,360,2013-02-24 22:55:00
5:15 PM,32.0,30.2,93,29.69,5.0,North,24.2,29.9,N/A,,Overcast,360,2013-02-24 23:15:00
5:35 PM,32.0,28.4,87,29.74,5.0,North,17.3,26.5,N/A,,Overcast,10,2013-02-24 23:35:00
5:55 PM,32.0,28.4,87,29.76,5.0,North,19.6,26.5,N/A,,Overcast,360,2013-02-24 23:55:00
6:15 PM,32.0,28.4,87,29.76,4.0,North,20.7,26.5,N/A,,Overcast,360,2013-02-25 00:15:00
6:35 PM,32.0,28.4,87,29.78,4.0,North,20.7,28.8,N/A,,Overcast,10,2013-02-25 00:35:00
6:55 PM,30.2,28.4,93,29.78,5.0,North,20.7,28.8,N/A,,Overcast,10,2013-02-25 00:55:00
7:15 PM,30.2,28.4,93,29.79,5.0,North,19.6,26.5,N/A,,Overcast,360,2013-02-25 01:15:00
7:35 PM,30.2,28.4,93,29.80,7.0,North,18.4,24.2,N/A,,Overcast,350,2013-02-25 01:35:00
7:55 PM,30.2,28.4,93,29.78,1.8,North,19.6,31.1,N/A,Snow,Light Snow,10,2013-02-25 01:55:00
8:15 PM,30.2,28.4,93,29.78,2.5,North,21.9,29.9,N/A,Snow-Thunderstorm,Light Thunderstorms and Snow,10,2013-02-25 02:15:00
8:35 PM,30.2,28.4,93,29.75,4.0,NNE,26.5,35.7,N/A,Snow,Light Snow,30,2013-02-25 02:35:00
8:55 PM,30.2,28.4,93,29.76,5.0,NNE,25.3,32.2,N/A,,Overcast,20,2013-02-25 02:55:00
9:15 PM,30.2,28.4,93,29.75,5.0,NNE,24.2,29.9,N/A,,Overcast,20,2013-02-25 03:15:00
9:35 PM,30.2,26.6,86,29.80,5.0,NNE,21.9,25.3,N/A,,Overcast,20,2013-02-25 03:35:00
9:55 PM,28.4,26.6,93,29.77,7.0,North,25.3,33.4,N/A,,Overcast,10,2013-02-25 03:55:00
10:15 PM,28.4,26.6,93,29.78,5.0,NNE,24.2,31.1,N/A,,Overcast,20,2013-02-25 04:15:00
10:35 PM,28.4,26.6,93,29.84,5.0,NNE,19.6,26.5,N/A,,Overcast,30,2013-02-25 04:35:00
10:55 PM,28.4,26.6,93,29.76,5.0,NNE,25.3,29.9,N/A,,Overcast,20,2013-02-25 04:55:00
11:15 PM,28.4,26.6,93,29.77,2.0,North,23.0,29.9,N/A,Snow,Light Snow,10,2013-02-25 05:15:00
11:35 PM,28.4,26.6,93,29.78,1.2,NNE,18.4,29.9,N/A,Snow-Thunderstorm,Light Thunderstorms and Snow,20,2013-02-25 05:35:00
11:55 PM,28.4,26.6,93,29.77,1.8,North,21.9,29.9,N/A,Snow,Light Snow,10,2013-02-25 05:55:00